Year,Month,Day,Hour,Minute,Value (Times are PST for temperature in C)
2014,07,12,00,00,19.90
2014,07,12,00,01,19.90
2014,07,12,00,02,19.90
2014,07,12,00,03,19.90
2014,07,12,00,04,20.00
2014,07,12,00,05,20.00
2014,07,12,00,06,20.10
2014,07,12,00,07,20.10
2014,07,12,00,08,20.10
2014,07,12,00,09,20.10
2014,07,12,00,10,20.10
2014,07,12,00,11,20.10
2014,07,12,00,12,20.10
2014,07,12,00,13,20.10
2014,07,12,00,14,20.10
2014,07,12,00,15,20.10
2014,07,12,00,16,20.00
2014,07,12,00,17,20.00
2014,07,12,00,18,19.90
2014,07,12,00,19,19.90
2014,07,12,00,20,19.80
2014,07,12,00,21,19.80
2014,07,12,00,22,19.70
2014,07,12,00,23,19.60
2014,07,12,00,24,19.60
2014,07,12,00,25,19.50
2014,07,12,00,26,19.40
2014,07,12,00,27,19.40
2014,07,12,00,28,19.30
2014,07,12,00,29,19.30
2014,07,12,00,30,19.30
2014,07,12,00,31,19.20
2014,07,12,00,32,19.20
2014,07,12,00,33,19.20
2014,07,12,00,34,19.10
2014,07,12,00,35,19.10
2014,07,12,00,36,19.10
2014,07,12,00,37,19.10
2014,07,12,00,38,19.00
2014,07,12,00,39,19.00
2014,07,12,00,40,18.90
2014,07,12,00,41,18.90
2014,07,12,00,42,18.80
2014,07,12,00,43,18.80
2014,07,12,00,44,18.80
2014,07,12,00,45,18.70
2014,07,12,00,46,18.70
2014,07,12,00,47,18.60
2014,07,12,00,48,18.60
2014,07,12,00,49,18.50
2014,07,12,00,50,18.50
2014,07,12,00,51,18.40
2014,07,12,00,52,18.40
2014,07,12,00,53,18.40
2014,07,12,00,54,18.40
2014,07,12,00,55,18.40
2014,07,12,00,56,18.40
2014,07,12,00,57,18.40
2014,07,12,00,58,18.40
2014,07,12,00,59,18.40
2014,07,12,01,00,18.30
2014,07,12,01,01,18.30
2014,07,12,01,02,18.30
2014,07,12,01,03,18.20
2014,07,12,01,04,18.20
2014,07,12,01,05,18.10
2014,07,12,01,06,18.00
2014,07,12,01,07,18.00
2014,07,12,01,08,17.90
2014,07,12,01,09,17.90
2014,07,12,01,10,17.80
2014,07,12,01,11,17.80
2014,07,12,01,12,17.80
2014,07,12,01,13,17.80
2014,07,12,01,14,17.70
2014,07,12,01,15,17.70
2014,07,12,01,16,17.70
2014,07,12,01,17,17.70
2014,07,12,01,18,17.70
2014,07,12,01,19,17.70
2014,07,12,01,20,17.60
2014,07,12,01,21,17.60
2014,07,12,01,22,17.60
2014,07,12,01,23,17.50
2014,07,12,01,24,17.50
2014,07,12,01,25,17.40
2014,07,12,01,26,17.40
2014,07,12,01,27,17.40
2014,07,12,01,28,17.40
2014,07,12,01,29,17.40
2014,07,12,01,30,17.40
2014,07,12,01,31,17.40
2014,07,12,01,32,17.40
2014,07,12,01,33,17.30
2014,07,12,01,34,17.30
2014,07,12,01,35,17.40
2014,07,12,01,36,17.40
2014,07,12,01,37,17.40
2014,07,12,01,38,17.40
2014,07,12,01,39,17.50
2014,07,12,01,40,17.50
2014,07,12,01,41,17.60
2014,07,12,01,42,17.60
2014,07,12,01,43,17.60
2014,07,12,01,44,17.60
2014,07,12,01,45,17.70
2014,07,12,01,46,17.70
2014,07,12,01,47,17.60
2014,07,12,01,48,17.60
2014,07,12,01,49,17.60
2014,07,12,01,50,17.60
2014,07,12,01,51,17.50
2014,07,12,01,52,17.50
2014,07,12,01,53,17.40
2014,07,12,01,54,17.40
2014,07,12,01,55,17.40
2014,07,12,01,56,17.40
2014,07,12,01,57,17.40
2014,07,12,01,58,17.40
2014,07,12,01,59,17.40
2014,07,12,02,00,17.30
2014,07,12,02,01,17.30
2014,07,12,02,02,17.30
2014,07,12,02,03,17.30
2014,07,12,02,04,17.30
2014,07,12,02,05,17.30
2014,07,12,02,06,17.30
2014,07,12,02,07,17.20
2014,07,12,02,08,17.20
2014,07,12,02,09,17.20
2014,07,12,02,10,17.20
2014,07,12,02,11,17.20
2014,07,12,02,12,17.20
2014,07,12,02,13,17.20
2014,07,12,02,14,17.30
2014,07,12,02,15,17.30
2014,07,12,02,16,17.30
2014,07,12,02,17,17.30
2014,07,12,02,18,17.30
2014,07,12,02,19,17.20
2014,07,12,02,20,17.20
2014,07,12,02,21,17.20
2014,07,12,02,22,17.20
2014,07,12,02,23,17.20
2014,07,12,02,24,17.20
2014,07,12,02,25,17.20
2014,07,12,02,26,17.20
2014,07,12,02,27,17.20
2014,07,12,02,28,17.10
2014,07,12,02,29,17.10
2014,07,12,02,30,17.10
2014,07,12,02,31,17.10
2014,07,12,02,32,17.00
2014,07,12,02,33,17.00
2014,07,12,02,34,17.00
2014,07,12,02,35,17.00
2014,07,12,02,36,16.90
2014,07,12,02,37,16.90
2014,07,12,02,38,16.90
2014,07,12,02,39,16.80
2014,07,12,02,40,16.80
2014,07,12,02,41,16.80
2014,07,12,02,42,16.70
2014,07,12,02,43,16.70
2014,07,12,02,44,16.60
2014,07,12,02,45,16.60
2014,07,12,02,46,16.50
2014,07,12,02,47,16.50
2014,07,12,02,48,16.40
2014,07,12,02,49,16.40
2014,07,12,02,50,16.40
2014,07,12,02,51,16.40
2014,07,12,02,52,16.30
2014,07,12,02,53,16.30
2014,07,12,02,54,16.30
2014,07,12,02,55,16.30
2014,07,12,02,56,16.30
2014,07,12,02,57,16.30
2014,07,12,02,58,16.30
2014,07,12,02,59,16.30
2014,07,12,03,00,16.30
2014,07,12,03,01,16.30
2014,07,12,03,02,16.20
2014,07,12,03,03,16.20
2014,07,12,03,04,16.20
2014,07,12,03,05,16.20
2014,07,12,03,06,16.20
2014,07,12,03,07,16.10
2014,07,12,03,08,16.10
2014,07,12,03,09,16.10
2014,07,12,03,10,16.10
2014,07,12,03,11,16.10
2014,07,12,03,12,16.10
2014,07,12,03,13,16.10
2014,07,12,03,14,16.10
2014,07,12,03,15,16.10
2014,07,12,03,16,16.10
2014,07,12,03,17,16.20
2014,07,12,03,18,16.20
2014,07,12,03,19,16.20
2014,07,12,03,20,16.20
2014,07,12,03,21,16.10
2014,07,12,03,22,16.10
2014,07,12,03,23,16.10
2014,07,12,03,24,16.10
2014,07,12,03,25,16.00
2014,07,12,03,26,16.00
2014,07,12,03,27,16.00
2014,07,12,03,28,15.90
2014,07,12,03,29,15.90
2014,07,12,03,30,15.90
2014,07,12,03,31,15.90
2014,07,12,03,32,15.90
2014,07,12,03,33,15.90
2014,07,12,03,34,15.90
2014,07,12,03,35,15.90
2014,07,12,03,36,15.90
2014,07,12,03,37,15.80
2014,07,12,03,38,15.80
2014,07,12,03,39,15.80
2014,07,12,03,40,15.80
2014,07,12,03,41,15.80
2014,07,12,03,42,15.80
2014,07,12,03,43,15.70
2014,07,12,03,44,15.70
2014,07,12,03,45,15.70
2014,07,12,03,46,15.70
2014,07,12,03,47,15.70
2014,07,12,03,48,15.80
2014,07,12,03,49,15.80
2014,07,12,03,50,15.80
2014,07,12,03,51,15.80
2014,07,12,03,52,15.80
2014,07,12,03,53,15.80
2014,07,12,03,54,15.80
2014,07,12,03,55,15.80
2014,07,12,03,56,15.80
2014,07,12,03,57,15.80
2014,07,12,03,58,15.80
2014,07,12,03,59,15.80
2014,07,12,04,00,15.80
2014,07,12,04,01,15.80
2014,07,12,04,02,15.80
2014,07,12,04,03,15.90
2014,07,12,04,04,15.90
2014,07,12,04,05,15.90
2014,07,12,04,06,15.90
2014,07,12,04,07,15.90
2014,07,12,04,08,15.90
2014,07,12,04,09,15.80
2014,07,12,04,10,15.80
2014,07,12,04,11,15.80
2014,07,12,04,12,15.80
2014,07,12,04,13,15.80
2014,07,12,04,14,15.80
2014,07,12,04,15,15.80
2014,07,12,04,16,15.80
2014,07,12,04,17,15.80
2014,07,12,04,18,15.90
2014,07,12,04,19,15.90
2014,07,12,04,20,15.90
2014,07,12,04,21,15.90
2014,07,12,04,22,15.90
2014,07,12,04,23,15.90
2014,07,12,04,24,15.90
2014,07,12,04,25,15.90
2014,07,12,04,26,15.90
2014,07,12,04,27,15.90
2014,07,12,04,28,15.90
2014,07,12,04,29,15.90
2014,07,12,04,30,15.90
2014,07,12,04,31,15.90
2014,07,12,04,32,15.90
2014,07,12,04,33,15.90
2014,07,12,04,34,15.90
2014,07,12,04,35,15.90
2014,07,12,04,36,15.90
2014,07,12,04,37,15.80
2014,07,12,04,38,15.80
2014,07,12,04,39,15.80
2014,07,12,04,40,15.80
2014,07,12,04,41,15.70
2014,07,12,04,42,15.70
2014,07,12,04,43,15.70
2014,07,12,04,44,15.70
2014,07,12,04,45,15.60
2014,07,12,04,46,15.60
2014,07,12,04,47,15.60
2014,07,12,04,48,15.60
2014,07,12,04,49,15.60
2014,07,12,04,50,15.60
2014,07,12,04,51,15.60
2014,07,12,04,52,15.60
2014,07,12,04,53,15.60
2014,07,12,04,54,15.60
2014,07,12,04,55,15.60
2014,07,12,04,56,15.50
2014,07,12,04,57,15.50
2014,07,12,04,58,15.50
2014,07,12,04,59,15.40
2014,07,12,05,00,15.40
2014,07,12,05,01,15.40
2014,07,12,05,02,15.40
2014,07,12,05,03,15.40
2014,07,12,05,04,15.40
2014,07,12,05,05,15.40
2014,07,12,05,06,15.40
2014,07,12,05,07,15.40
2014,07,12,05,08,15.30
2014,07,12,05,09,15.30
2014,07,12,05,10,15.30
2014,07,12,05,11,15.30
2014,07,12,05,12,15.30
2014,07,12,05,13,15.30
2014,07,12,05,14,15.30
2014,07,12,05,15,15.30
2014,07,12,05,16,15.30
2014,07,12,05,17,15.30
2014,07,12,05,18,15.30
2014,07,12,05,19,15.30
2014,07,12,05,20,15.20
2014,07,12,05,21,15.20
2014,07,12,05,22,15.20
2014,07,12,05,23,15.20
2014,07,12,05,24,15.20
2014,07,12,05,25,15.20
2014,07,12,05,26,15.20
2014,07,12,05,27,15.20
2014,07,12,05,28,15.20
2014,07,12,05,29,15.20
2014,07,12,05,30,15.10
2014,07,12,05,31,15.10
2014,07,12,05,32,15.10
2014,07,12,05,33,15.10
2014,07,12,05,34,15.10
2014,07,12,05,35,15.20
2014,07,12,05,36,15.20
2014,07,12,05,37,15.20
2014,07,12,05,38,15.10
2014,07,12,05,39,15.10
2014,07,12,05,40,15.10
2014,07,12,05,41,15.10
2014,07,12,05,42,15.10
2014,07,12,05,43,15.10
2014,07,12,05,44,15.10
2014,07,12,05,45,15.10
2014,07,12,05,46,15.10
2014,07,12,05,47,15.10
2014,07,12,05,48,15.10
2014,07,12,05,49,15.10
2014,07,12,05,50,15.10
2014,07,12,05,51,15.10
2014,07,12,05,52,15.10
2014,07,12,05,53,15.10
2014,07,12,05,54,15.10
2014,07,12,05,55,15.10
2014,07,12,05,56,15.00
2014,07,12,05,57,15.00
2014,07,12,05,58,15.00
2014,07,12,05,59,15.00
2014,07,12,06,00,15.00
2014,07,12,06,01,15.00
2014,07,12,06,02,15.00
2014,07,12,06,03,15.00
2014,07,12,06,04,15.00
2014,07,12,06,05,15.00
2014,07,12,06,06,15.00
2014,07,12,06,07,15.00
2014,07,12,06,08,15.00
2014,07,12,06,09,15.00
2014,07,12,06,10,15.00
2014,07,12,06,11,15.00
2014,07,12,06,12,15.00
2014,07,12,06,13,15.00
2014,07,12,06,14,15.00
2014,07,12,06,15,15.00
2014,07,12,06,16,15.00
2014,07,12,06,17,15.00
2014,07,12,06,18,15.10
2014,07,12,06,19,15.10
2014,07,12,06,20,15.10
2014,07,12,06,21,15.10
2014,07,12,06,22,15.10
2014,07,12,06,23,15.10
2014,07,12,06,24,15.10
2014,07,12,06,25,15.10
2014,07,12,06,26,15.00
2014,07,12,06,27,15.00
2014,07,12,06,28,15.10
2014,07,12,06,29,15.10
2014,07,12,06,30,15.10
2014,07,12,06,31,15.10
2014,07,12,06,32,15.10
2014,07,12,06,33,15.00
2014,07,12,06,34,15.00
2014,07,12,06,35,15.00
2014,07,12,06,36,15.00
2014,07,12,06,37,15.10
2014,07,12,06,38,15.10
2014,07,12,06,39,15.10
2014,07,12,06,40,15.10
2014,07,12,06,41,15.10
2014,07,12,06,42,15.20
2014,07,12,06,43,15.20
2014,07,12,06,44,15.20
2014,07,12,06,45,15.20
2014,07,12,06,46,15.30
2014,07,12,06,47,15.30
2014,07,12,06,48,15.30
2014,07,12,06,49,15.40
2014,07,12,06,50,15.40
2014,07,12,06,51,15.40
2014,07,12,06,52,15.50
2014,07,12,06,53,15.50
2014,07,12,06,54,15.60
2014,07,12,06,55,15.60
2014,07,12,06,56,15.60
2014,07,12,06,57,15.60
2014,07,12,06,58,15.70
2014,07,12,06,59,15.70
2014,07,12,07,00,15.70
2014,07,12,07,01,15.80
2014,07,12,07,02,15.80
2014,07,12,07,03,15.80
2014,07,12,07,04,15.90
2014,07,12,07,05,16.00
2014,07,12,07,06,16.10
2014,07,12,07,07,16.20
2014,07,12,07,08,16.30
2014,07,12,07,09,16.40
2014,07,12,07,10,16.50
2014,07,12,07,11,16.60
2014,07,12,07,12,16.70
2014,07,12,07,13,16.80
2014,07,12,07,14,16.90
2014,07,12,07,15,17.00
2014,07,12,07,16,17.10
2014,07,12,07,17,17.20
2014,07,12,07,18,17.30
2014,07,12,07,19,17.40
2014,07,12,07,20,17.50
2014,07,12,07,21,17.60
2014,07,12,07,22,17.70
2014,07,12,07,23,17.80
2014,07,12,07,24,18.00
2014,07,12,07,25,18.10
2014,07,12,07,26,18.20
2014,07,12,07,27,18.30
2014,07,12,07,28,18.40
2014,07,12,07,29,18.50
2014,07,12,07,30,18.60
2014,07,12,07,31,18.70
2014,07,12,07,32,18.80
2014,07,12,07,33,18.90
2014,07,12,07,34,19.00
2014,07,12,07,35,19.10
2014,07,12,07,36,19.10
2014,07,12,07,37,19.20
2014,07,12,07,38,19.20
2014,07,12,07,39,19.30
2014,07,12,07,40,19.30
2014,07,12,07,41,19.30
2014,07,12,07,42,19.30
2014,07,12,07,43,19.20
2014,07,12,07,44,19.10
2014,07,12,07,45,19.00
2014,07,12,07,46,18.90
2014,07,12,07,47,18.80
2014,07,12,07,48,18.80
2014,07,12,07,49,18.70
2014,07,12,07,50,18.70
2014,07,12,07,51,18.70
2014,07,12,07,52,18.70
2014,07,12,07,53,18.70
2014,07,12,07,54,18.80
2014,07,12,07,55,18.80
2014,07,12,07,56,18.80
2014,07,12,07,57,18.90
2014,07,12,07,58,18.90
2014,07,12,07,59,19.00
2014,07,12,08,00,19.10
2014,07,12,08,01,19.10
2014,07,12,08,02,19.10
2014,07,12,08,03,19.20
2014,07,12,08,04,19.20
2014,07,12,08,05,19.20
2014,07,12,08,06,19.20
2014,07,12,08,07,19.30
2014,07,12,08,08,19.30
2014,07,12,08,09,19.40
2014,07,12,08,10,19.40
2014,07,12,08,11,19.50
2014,07,12,08,12,19.50
2014,07,12,08,13,19.60
2014,07,12,08,14,19.70
2014,07,12,08,15,19.70
2014,07,12,08,16,19.80
2014,07,12,08,17,19.90
2014,07,12,08,18,19.90
2014,07,12,08,19,20.00
2014,07,12,08,20,20.00
2014,07,12,08,21,20.00
2014,07,12,08,22,19.90
2014,07,12,08,23,19.90
2014,07,12,08,24,19.80
2014,07,12,08,25,19.80
2014,07,12,08,26,19.70
2014,07,12,08,27,19.70
2014,07,12,08,28,19.70
2014,07,12,08,29,19.70
2014,07,12,08,30,19.70
2014,07,12,08,31,19.60
2014,07,12,08,32,19.60
2014,07,12,08,33,19.70
2014,07,12,08,34,19.70
2014,07,12,08,35,19.70
2014,07,12,08,36,19.80
2014,07,12,08,37,19.80
2014,07,12,08,38,19.80
2014,07,12,08,39,19.90
2014,07,12,08,40,19.90
2014,07,12,08,41,20.00
2014,07,12,08,42,20.10
2014,07,12,08,43,20.20
2014,07,12,08,44,20.20
2014,07,12,08,45,20.30
2014,07,12,08,46,20.40
2014,07,12,08,47,20.50
2014,07,12,08,48,20.60
2014,07,12,08,49,20.70
2014,07,12,08,50,20.80
2014,07,12,08,51,20.90
2014,07,12,08,52,21.00
2014,07,12,08,53,21.10
2014,07,12,08,54,21.20
2014,07,12,08,55,21.20
2014,07,12,08,56,21.30
2014,07,12,08,57,21.30
2014,07,12,08,58,21.30
2014,07,12,08,59,21.40
2014,07,12,09,00,21.50
2014,07,12,09,01,21.50
2014,07,12,09,02,21.60
2014,07,12,09,03,21.60
2014,07,12,09,04,21.70
2014,07,12,09,05,21.80
2014,07,12,09,06,21.80
2014,07,12,09,07,21.80
2014,07,12,09,08,21.80
2014,07,12,09,09,21.80
2014,07,12,09,10,21.70
2014,07,12,09,11,21.60
2014,07,12,09,12,21.50
2014,07,12,09,13,21.40
2014,07,12,09,14,21.30
2014,07,12,09,15,21.20
2014,07,12,09,16,21.20
2014,07,12,09,17,21.20
2014,07,12,09,18,21.20
2014,07,12,09,19,21.20
2014,07,12,09,20,21.10
2014,07,12,09,21,21.10
2014,07,12,09,22,21.10
2014,07,12,09,23,21.10
2014,07,12,09,24,21.10
2014,07,12,09,25,21.10
2014,07,12,09,26,21.10
2014,07,12,09,27,21.10
2014,07,12,09,28,21.20
2014,07,12,09,29,21.20
2014,07,12,09,30,21.30
2014,07,12,09,31,21.40
2014,07,12,09,32,21.40
2014,07,12,09,33,21.40
2014,07,12,09,34,21.40
2014,07,12,09,35,21.40
2014,07,12,09,36,21.40
2014,07,12,09,37,21.40
2014,07,12,09,38,21.40
2014,07,12,09,39,21.50
2014,07,12,09,40,21.60
2014,07,12,09,41,21.70
2014,07,12,09,42,21.70
2014,07,12,09,43,21.80
2014,07,12,09,44,21.80
2014,07,12,09,45,21.80
2014,07,12,09,46,21.70
2014,07,12,09,47,21.70
2014,07,12,09,48,21.70
2014,07,12,09,49,21.70
2014,07,12,09,50,21.60
2014,07,12,09,51,21.60
2014,07,12,09,52,21.70
2014,07,12,09,53,21.70
2014,07,12,09,54,21.70
2014,07,12,09,55,21.70
2014,07,12,09,56,21.70
2014,07,12,09,57,21.80
2014,07,12,09,58,21.80
2014,07,12,09,59,21.80
2014,07,12,10,00,21.90
2014,07,12,10,01,21.90
2014,07,12,10,02,22.00
2014,07,12,10,03,22.10
2014,07,12,10,04,22.20
2014,07,12,10,05,22.30
2014,07,12,10,06,22.30
2014,07,12,10,07,22.40
2014,07,12,10,08,22.50
2014,07,12,10,09,22.70
2014,07,12,10,10,22.80
2014,07,12,10,11,22.80
2014,07,12,10,12,22.90
2014,07,12,10,13,23.00
2014,07,12,10,14,23.10
2014,07,12,10,15,23.10
2014,07,12,10,16,23.20
2014,07,12,10,17,23.20
2014,07,12,10,18,23.30
2014,07,12,10,19,23.30
2014,07,12,10,20,23.40
2014,07,12,10,21,23.40
2014,07,12,10,22,23.40
2014,07,12,10,23,23.40
2014,07,12,10,24,23.40
2014,07,12,10,25,23.40
2014,07,12,10,26,23.40
2014,07,12,10,27,23.40
2014,07,12,10,28,23.40
2014,07,12,10,29,23.30
2014,07,12,10,30,23.20
2014,07,12,10,31,23.20
2014,07,12,10,32,23.20
2014,07,12,10,33,23.10
2014,07,12,10,34,23.10
2014,07,12,10,35,23.10
2014,07,12,10,36,23.20
2014,07,12,10,37,23.30
2014,07,12,10,38,23.40
2014,07,12,10,39,23.50
2014,07,12,10,40,23.60
2014,07,12,10,41,23.70
2014,07,12,10,42,23.80
2014,07,12,10,43,23.90
2014,07,12,10,44,24.00
2014,07,12,10,45,24.10
2014,07,12,10,46,24.10
2014,07,12,10,47,24.10
2014,07,12,10,48,24.10
2014,07,12,10,49,24.00
2014,07,12,10,50,24.00
2014,07,12,10,51,24.00
2014,07,12,10,52,24.00
2014,07,12,10,53,24.10
2014,07,12,10,54,24.10
2014,07,12,10,55,24.00
2014,07,12,10,56,23.90
2014,07,12,10,57,23.90
2014,07,12,10,58,23.80
2014,07,12,10,59,23.80
2014,07,12,11,00,23.80
2014,07,12,11,01,23.70
2014,07,12,11,02,23.70
2014,07,12,11,03,23.70
2014,07,12,11,04,23.70
2014,07,12,11,05,23.70
2014,07,12,11,06,23.80
2014,07,12,11,07,23.80
2014,07,12,11,08,23.90
2014,07,12,11,09,23.90
2014,07,12,11,10,24.00
2014,07,12,11,11,24.10
2014,07,12,11,12,24.10
2014,07,12,11,13,24.10
2014,07,12,11,14,24.20
2014,07,12,11,15,24.20
2014,07,12,11,16,24.30
2014,07,12,11,17,24.30
2014,07,12,11,18,24.30
2014,07,12,11,19,24.40
2014,07,12,11,20,24.40
2014,07,12,11,21,24.40
2014,07,12,11,22,24.40
2014,07,12,11,23,24.40
2014,07,12,11,24,24.40
2014,07,12,11,25,24.40
2014,07,12,11,26,24.30
2014,07,12,11,27,24.30
2014,07,12,11,28,24.30
2014,07,12,11,29,24.30
2014,07,12,11,30,24.30
2014,07,12,11,31,24.40
2014,07,12,11,32,24.30
2014,07,12,11,33,24.40
2014,07,12,11,34,24.50
2014,07,12,11,35,24.50
2014,07,12,11,36,24.60
2014,07,12,11,37,24.60
2014,07,12,11,38,24.70
2014,07,12,11,39,24.70
2014,07,12,11,40,24.60
2014,07,12,11,41,24.60
2014,07,12,11,42,24.60
2014,07,12,11,43,24.50
2014,07,12,11,44,24.50
2014,07,12,11,45,24.50
2014,07,12,11,46,24.40
2014,07,12,11,47,24.40
2014,07,12,11,48,24.40
2014,07,12,11,49,24.40
2014,07,12,11,50,24.50
2014,07,12,11,51,24.60
2014,07,12,11,52,24.70
2014,07,12,11,53,24.80
2014,07,12,11,54,24.90
2014,07,12,11,55,24.90
2014,07,12,11,56,24.90
2014,07,12,11,57,24.90
2014,07,12,11,58,24.90
2014,07,12,11,59,24.90
2014,07,12,12,00,25.00
2014,07,12,12,01,25.00
2014,07,12,12,02,25.10
2014,07,12,12,03,25.10
2014,07,12,12,04,25.10
2014,07,12,12,05,25.10
2014,07,12,12,06,25.20
2014,07,12,12,07,25.20
2014,07,12,12,08,25.20
2014,07,12,12,09,25.20
2014,07,12,12,10,25.20
2014,07,12,12,11,25.20
2014,07,12,12,12,25.30
2014,07,12,12,13,25.30
2014,07,12,12,14,25.40
2014,07,12,12,15,25.40
2014,07,12,12,16,25.50
2014,07,12,12,17,25.60
2014,07,12,12,18,25.70
2014,07,12,12,19,25.70
2014,07,12,12,20,25.80
2014,07,12,12,21,25.80
2014,07,12,12,22,25.80
2014,07,12,12,23,25.70
2014,07,12,12,24,25.70
2014,07,12,12,25,25.70
2014,07,12,12,26,25.70
2014,07,12,12,27,25.80
2014,07,12,12,28,25.80
2014,07,12,12,29,25.80
2014,07,12,12,30,25.70
2014,07,12,12,31,25.60
2014,07,12,12,32,25.50
2014,07,12,12,33,25.50
2014,07,12,12,34,25.40
2014,07,12,12,35,25.40
2014,07,12,12,36,25.40
2014,07,12,12,37,25.40
2014,07,12,12,38,25.40
2014,07,12,12,39,25.30
2014,07,12,12,40,25.30
2014,07,12,12,41,25.30
2014,07,12,12,42,25.40
2014,07,12,12,43,25.40
2014,07,12,12,44,25.50
2014,07,12,12,45,25.60
2014,07,12,12,46,25.70
2014,07,12,12,47,25.80
2014,07,12,12,48,26.00
2014,07,12,12,49,26.10
2014,07,12,12,50,26.30
2014,07,12,12,51,26.40
2014,07,12,12,52,26.50
2014,07,12,12,53,26.60
2014,07,12,12,54,26.60
2014,07,12,12,55,26.70
2014,07,12,12,56,26.80
2014,07,12,12,57,26.80
2014,07,12,12,58,26.90
2014,07,12,12,59,27.00
2014,07,12,13,00,27.00
2014,07,12,13,01,26.90
2014,07,12,13,02,26.80
2014,07,12,13,03,26.70
2014,07,12,13,04,26.60
2014,07,12,13,05,26.50
2014,07,12,13,06,26.40
2014,07,12,13,07,26.30
2014,07,12,13,08,26.30
2014,07,12,13,09,26.30
2014,07,12,13,10,26.40
2014,07,12,13,11,26.50
2014,07,12,13,12,26.50
2014,07,12,13,13,26.60
2014,07,12,13,14,26.50
2014,07,12,13,15,26.50
2014,07,12,13,16,26.60
2014,07,12,13,17,26.60
2014,07,12,13,18,26.70
2014,07,12,13,19,26.80
2014,07,12,13,20,26.90
2014,07,12,13,21,27.00
2014,07,12,13,22,27.10
2014,07,12,13,23,27.10
2014,07,12,13,24,27.10
2014,07,12,13,25,27.10
2014,07,12,13,26,27.10
2014,07,12,13,27,27.00
2014,07,12,13,28,26.80
2014,07,12,13,29,26.80
2014,07,12,13,30,26.80
2014,07,12,13,31,26.90
2014,07,12,13,32,27.10
2014,07,12,13,33,27.20
2014,07,12,13,34,27.20
2014,07,12,13,35,27.20
2014,07,12,13,36,27.20
2014,07,12,13,37,27.20
2014,07,12,13,38,27.20
2014,07,12,13,39,27.20
2014,07,12,13,40,27.20
2014,07,12,13,41,27.40
2014,07,12,13,42,27.40
2014,07,12,13,43,27.50
2014,07,12,13,44,27.60
2014,07,12,13,45,27.50
2014,07,12,13,46,27.50
2014,07,12,13,47,27.40
2014,07,12,13,48,27.30
2014,07,12,13,49,27.10
2014,07,12,13,50,27.10
2014,07,12,13,51,27.10
2014,07,12,13,52,27.10
2014,07,12,13,53,27.10
2014,07,12,13,54,27.10
2014,07,12,13,55,27.10
2014,07,12,13,56,27.20
2014,07,12,13,57,27.20
2014,07,12,13,58,27.30
2014,07,12,13,59,27.40
2014,07,12,14,00,27.40
2014,07,12,14,01,27.50
2014,07,12,14,02,27.60
2014,07,12,14,03,27.70
2014,07,12,14,04,27.70
2014,07,12,14,05,27.80
2014,07,12,14,06,27.80
2014,07,12,14,07,27.80
2014,07,12,14,08,27.70
2014,07,12,14,09,27.70
2014,07,12,14,10,27.70
2014,07,12,14,11,27.70
2014,07,12,14,12,27.70
2014,07,12,14,13,27.70
2014,07,12,14,14,27.70
2014,07,12,14,15,27.70
2014,07,12,14,16,27.80
2014,07,12,14,17,27.80
2014,07,12,14,18,27.80
2014,07,12,14,19,27.90
2014,07,12,14,20,28.00
2014,07,12,14,21,28.10
2014,07,12,14,22,28.10
2014,07,12,14,23,28.10
2014,07,12,14,24,28.10
2014,07,12,14,25,28.00
2014,07,12,14,26,28.00
2014,07,12,14,27,27.90
2014,07,12,14,28,27.80
2014,07,12,14,29,27.70
2014,07,12,14,30,27.60
2014,07,12,14,31,27.50
2014,07,12,14,32,27.40
2014,07,12,14,33,27.50
2014,07,12,14,34,27.50
2014,07,12,14,35,27.60
2014,07,12,14,36,27.70
2014,07,12,14,37,27.80
2014,07,12,14,38,27.70
2014,07,12,14,39,27.70
2014,07,12,14,40,27.60
2014,07,12,14,41,27.50
2014,07,12,14,42,27.40
2014,07,12,14,43,27.40
2014,07,12,14,44,27.40
2014,07,12,14,45,27.30
2014,07,12,14,46,27.20
2014,07,12,14,47,27.10
2014,07,12,14,48,27.00
2014,07,12,14,49,27.10
2014,07,12,14,50,27.00
2014,07,12,14,51,27.10
2014,07,12,14,52,27.10
2014,07,12,14,53,27.20
2014,07,12,14,54,27.20
2014,07,12,14,55,27.10
2014,07,12,14,56,26.90
2014,07,12,14,57,26.80
2014,07,12,14,58,26.80
2014,07,12,14,59,26.80
2014,07,12,15,00,26.80
2014,07,12,15,01,26.80
2014,07,12,15,02,26.90
2014,07,12,15,03,27.00
2014,07,12,15,04,26.90
2014,07,12,15,05,26.90
2014,07,12,15,06,26.80
2014,07,12,15,07,26.80
2014,07,12,15,08,26.80
2014,07,12,15,09,26.80
2014,07,12,15,10,26.90
2014,07,12,15,11,27.00
2014,07,12,15,12,27.10
2014,07,12,15,13,27.10
2014,07,12,15,14,27.10
2014,07,12,15,15,27.10
2014,07,12,15,16,27.00
2014,07,12,15,17,26.90
2014,07,12,15,18,26.90
2014,07,12,15,19,26.80
2014,07,12,15,20,26.60
2014,07,12,15,21,26.50
2014,07,12,15,22,26.50
2014,07,12,15,23,26.40
2014,07,12,15,24,26.30
2014,07,12,15,25,26.30
2014,07,12,15,26,26.30
2014,07,12,15,27,26.30
2014,07,12,15,28,26.30
2014,07,12,15,29,26.20
2014,07,12,15,30,26.20
2014,07,12,15,31,26.20
2014,07,12,15,32,26.20
2014,07,12,15,33,26.10
2014,07,12,15,34,26.10
2014,07,12,15,35,26.10
2014,07,12,15,36,26.10
2014,07,12,15,37,26.00
2014,07,12,15,38,26.10
2014,07,12,15,39,26.10
2014,07,12,15,40,26.20
2014,07,12,15,41,26.20
2014,07,12,15,42,26.20
2014,07,12,15,43,26.20
2014,07,12,15,44,26.30
2014,07,12,15,45,26.40
2014,07,12,15,46,26.40
2014,07,12,15,47,26.50
2014,07,12,15,48,26.60
2014,07,12,15,49,26.70
2014,07,12,15,50,26.80
2014,07,12,15,51,26.90
2014,07,12,15,52,27.10
2014,07,12,15,53,27.20
2014,07,12,15,54,27.40
2014,07,12,15,55,27.50
2014,07,12,15,56,27.60
2014,07,12,15,57,27.70
2014,07,12,15,58,27.80
2014,07,12,15,59,27.90
2014,07,12,16,00,28.00
2014,07,12,16,01,28.10
2014,07,12,16,02,28.10
2014,07,12,16,03,28.00
2014,07,12,16,04,27.90
2014,07,12,16,05,27.80
2014,07,12,16,06,27.60
2014,07,12,16,07,27.40
2014,07,12,16,08,27.20
2014,07,12,16,09,27.10
2014,07,12,16,10,27.00
2014,07,12,16,11,27.00
2014,07,12,16,12,26.90
2014,07,12,16,13,26.90
2014,07,12,16,14,26.90
2014,07,12,16,15,26.90
2014,07,12,16,16,26.80
2014,07,12,16,17,26.70
2014,07,12,16,18,26.70
2014,07,12,16,19,26.60
2014,07,12,16,20,26.70
2014,07,12,16,21,26.80
2014,07,12,16,22,26.90
2014,07,12,16,23,27.00
2014,07,12,16,24,27.20
2014,07,12,16,25,27.30
2014,07,12,16,26,27.40
2014,07,12,16,27,27.50
2014,07,12,16,28,27.60
2014,07,12,16,29,27.60
2014,07,12,16,30,27.60
2014,07,12,16,31,27.60
2014,07,12,16,32,27.70
2014,07,12,16,33,27.70
2014,07,12,16,34,27.80
2014,07,12,16,35,27.90
2014,07,12,16,36,28.00
2014,07,12,16,37,28.00
2014,07,12,16,38,28.10
2014,07,12,16,39,28.10
2014,07,12,16,40,28.20
2014,07,12,16,41,28.20
2014,07,12,16,42,28.30
2014,07,12,16,43,28.30
2014,07,12,16,44,28.40
2014,07,12,16,45,28.40
2014,07,12,16,46,28.40
2014,07,12,16,47,28.40
2014,07,12,16,48,28.40
2014,07,12,16,49,28.40
2014,07,12,16,50,28.30
2014,07,12,16,51,28.20
2014,07,12,16,52,28.00
2014,07,12,16,53,27.90
2014,07,12,16,54,27.80
2014,07,12,16,55,27.70
2014,07,12,16,56,27.70
2014,07,12,16,57,27.70
2014,07,12,16,58,27.70
2014,07,12,16,59,27.80
2014,07,12,17,00,27.80
2014,07,12,17,01,27.90
2014,07,12,17,02,28.00
2014,07,12,17,03,28.00
2014,07,12,17,04,28.10
2014,07,12,17,05,28.20
2014,07,12,17,06,28.30
2014,07,12,17,07,28.30
2014,07,12,17,08,28.30
2014,07,12,17,09,28.30
2014,07,12,17,10,28.40
2014,07,12,17,11,28.40
2014,07,12,17,12,28.40
2014,07,12,17,13,28.40
2014,07,12,17,14,28.40
2014,07,12,17,15,28.40
2014,07,12,17,16,28.40
2014,07,12,17,17,28.50
2014,07,12,17,18,28.50
2014,07,12,17,19,28.40